,,,PA_Meas_PMT16A,,PR_Meas_QMR101_102,,RH_Meas_QMH101,,SR_Meas_QMS101,,TA_Meas_QMH101,,GenWind,,GenWind,
date,time,status,PA,status,PR,status,RH,status,SR,status,TA,status,DirAvg,status,SpdAvg,
2012-02-09, 00:00:04,VALID,1010.17,VALID,0,VALID,104,VALID,0,VALID,23.8109,VALID,38,VALID,0,
2012-02-09, 00:01:04,VALID,1010.15,VALID,0,VALID,104,VALID,0,VALID,23.8322,VALID,38,VALID,0.0957031,
2012-02-09, 00:02:04,VALID,1010.15,VALID,0,VALID,104,VALID,0,VALID,23.7914,VALID,38,VALID,0.412891,
2012-02-09, 00:03:04,VALID,1010.13,VALID,0,VALID,104,VALID,0,VALID,23.772,VALID,38,VALID,0.570313,
2012-02-09, 00:04:04,VALID,1010.11,VALID,0,VALID,104,VALID,0,VALID,23.7543,VALID,38,VALID,0.408594,
2012-02-09, 00:05:04,VALID,1010.09,VALID,0,VALID,104,VALID,0,VALID,23.7135,VALID,38,VALID,0.375391,
2012-02-09, 00:06:04,VALID,1010.09,VALID,0,VALID,104,VALID,0,VALID,23.6727,VALID,38,VALID,0.107031,
2012-02-09, 00:07:04,VALID,1010.04,VALID,0,VALID,104,VALID,0,VALID,23.6745,VALID,38,VALID,0,
2012-02-09, 00:08:04,VALID,1010.05,VALID,0,VALID,104,VALID,0,VALID,23.6356,VALID,38,VALID,0,
2012-02-09, 00:09:04,VALID,1009.99,VALID,0,VALID,104,VALID,0,VALID,23.655,VALID,38,VALID,0,
2012-02-09, 00:10:04,VALID,1009.97,VALID,0,VALID,104,VALID,0,VALID,23.655,VALID,38,VALID,0,
2012-02-09, 00:11:04,VALID,1009.97,VALID,0,VALID,104,VALID,0,VALID,23.694,VALID,38,VALID,0,
2012-02-09, 00:12:04,VALID,1009.94,VALID,0,VALID,104,VALID,0,VALID,23.7135,VALID,38,VALID,0.00429688,
2012-02-09, 00:13:04,VALID,1009.93,VALID,0,VALID,104,VALID,0,VALID,23.733,VALID,38,VALID,0,
2012-02-09, 00:14:04,VALID,1009.97,VALID,0,VALID,104,VALID,0,VALID,23.733,VALID,38,VALID,0,
2012-02-09, 00:15:04,VALID,1009.98,VALID,0,VALID,104,VALID,0,VALID,23.733,VALID,38,VALID,0,
2012-02-09, 00:16:04,VALID,1009.92,VALID,0,VALID,104,VALID,0,VALID,23.733,VALID,38,VALID,0,
2012-02-09, 00:17:04,VALID,1009.95,VALID,0,VALID,104,VALID,0,VALID,23.733,VALID,38,VALID,0,
2012-02-09, 00:18:04,VALID,1009.95,VALID,0,VALID,104,VALID,0,VALID,23.7525,VALID,38,VALID,0,
2012-02-09, 00:19:04,VALID,1009.94,VALID,0,VALID,104,VALID,0,VALID,23.7135,VALID,38,VALID,0,
2012-02-09, 00:20:04,VALID,1009.94,VALID,0,VALID,104,VALID,0,VALID,23.7543,VALID,38,VALID,0,
2012-02-09, 00:21:04,VALID,1009.92,VALID,0,VALID,104,VALID,0,VALID,23.7135,VALID,38,VALID,0,
2012-02-09, 00:22:04,VALID,1009.92,VALID,0,VALID,104,VALID,0,VALID,23.7135,VALID,38,VALID,0,
2012-02-09, 00:23:04,VALID,1009.9,VALID,0,VALID,104,VALID,0,VALID,23.694,VALID,38,VALID,0,
2012-02-09, 00:24:04,VALID,1009.9,VALID,0,VALID,104,VALID,0,VALID,23.694,VALID,38,VALID,0,
2012-02-09, 00:25:04,VALID,1009.91,VALID,0,VALID,104,VALID,0,VALID,23.694,VALID,38,VALID,0,
2012-02-09, 00:26:04,VALID,1009.9,VALID,0,VALID,104,VALID,0,VALID,23.6745,VALID,38,VALID,0,
2012-02-09, 00:27:04,VALID,1009.9,VALID,0,VALID,104,VALID,0,VALID,23.655,VALID,38,VALID,0,
2012-02-09, 00:28:04,VALID,1009.89,VALID,0,VALID,104,VALID,0,VALID,23.6356,VALID,38,VALID,0,
2012-02-09, 00:29:04,VALID,1009.86,VALID,0,VALID,104,VALID,0,VALID,23.6356,VALID,38,VALID,0,
2012-02-09, 00:30:04,VALID,1009.82,VALID,0,VALID,104,VALID,0,VALID,23.6161,VALID,38,VALID,0,
2012-02-09, 00:31:04,VALID,1009.83,VALID,0,VALID,104,VALID,0,VALID,23.5966,VALID,38,VALID,0,
2012-02-09, 00:32:04,VALID,1009.79,VALID,0,VALID,104,VALID,0,VALID,23.6356,VALID,38,VALID,0,
2012-02-09, 00:33:04,VALID,1009.76,VALID,0,VALID,104,VALID,0,VALID,23.6356,VALID,38,VALID,0,
2012-02-09, 00:34:04,VALID,1009.74,VALID,0,VALID,104,VALID,0,VALID,23.655,VALID,38,VALID,0,
2012-02-09, 00:35:04,VALID,1009.73,VALID,0,VALID,104,VALID,0,VALID,23.655,VALID,38,VALID,0,
2012-02-09, 00:36:04,VALID,1009.73,VALID,0,VALID,104,VALID,0,VALID,23.6161,VALID,38,VALID,0,
2012-02-09, 00:37:04,VALID,1009.68,VALID,0,VALID,104,VALID,0,VALID,23.6161,VALID,38,VALID,0,
2012-02-09, 00:38:04,VALID,1009.68,VALID,0,VALID,104,VALID,0,VALID,23.6373,VALID,38,VALID,0,
2012-02-09, 00:39:04,VALID,1009.68,VALID,0,VALID,104,VALID,0,VALID,23.5966,VALID,38,VALID,0,
2012-02-09, 00:40:04,VALID,1009.66,VALID,0,VALID,104,VALID,0,VALID,23.5771,VALID,38,VALID,0,
2012-02-09, 00:41:04,VALID,1009.67,VALID,0,VALID,104,VALID,0,VALID,23.5381,VALID,38,VALID,0,
2012-02-09, 00:42:04,VALID,1009.65,VALID,0,VALID,104,VALID,0,VALID,23.4992,VALID,38,VALID,0,
2012-02-09, 00:43:04,VALID,1009.66,VALID,0,VALID,104,VALID,0,VALID,23.4797,VALID,38,VALID,0,
2012-02-09, 00:44:04,VALID,1009.63,VALID,0,VALID,104,VALID,0,VALID,23.5204,VALID,38,VALID,0,
2012-02-09, 00:45:04,VALID,1009.64,VALID,0,VALID,104,VALID,0,VALID,23.5399,VALID,38,VALID,0,
2012-02-09, 00:46:04,VALID,1009.64,VALID,0,VALID,104,VALID,0,VALID,23.5576,VALID,38,VALID,0,
2012-02-09, 00:47:04,VALID,1009.62,VALID,0,VALID,104,VALID,0,VALID,23.5771,VALID,38,VALID,0.0433594,
2012-02-09, 00:48:04,VALID,1009.62,VALID,0,VALID,104,VALID,0,VALID,23.5771,VALID,38,VALID,0.220313,
2012-02-09, 00:49:04,VALID,1009.63,VALID,0,VALID,104,VALID,0,VALID,23.5966,VALID,38,VALID,0.169531,
2012-02-09, 00:50:04,VALID,1009.61,VALID,0,VALID,104,VALID,0,VALID,23.5966,VALID,38,VALID,0,
2012-02-09, 00:51:04,VALID,1009.6,VALID,0,VALID,104,VALID,0,VALID,23.5771,VALID,38,VALID,0,
2012-02-09, 00:52:04,VALID,1009.61,VALID,0,VALID,104,VALID,0,VALID,23.5009,VALID,38,VALID,0.182031,
2012-02-09, 00:53:04,VALID,1009.63,VALID,0,VALID,104,VALID,0,VALID,23.4407,VALID,38,VALID,0.286719,
2012-02-09, 00:54:04,VALID,1009.62,VALID,0,VALID,104,VALID,0,VALID,23.4407,VALID,38,VALID,0.400391,
2012-02-09, 00:55:04,VALID,1009.65,VALID,0,VALID,104,VALID,0,VALID,23.4017,VALID,38,VALID,0.241797,
2012-02-09, 00:56:04,VALID,1009.66,VALID,0,VALID,104,VALID,0,VALID,23.3628,VALID,38,VALID,0.138281,
2012-02-09, 00:57:04,VALID,1009.64,VALID,0,VALID,104,VALID,0,VALID,23.3026,VALID,38,VALID,0,
2012-02-09, 00:58:04,VALID,1009.67,VALID,0,VALID,104,VALID,0,VALID,23.3043,VALID,38,VALID,0,
2012-02-09, 00:59:04,VALID,1009.65,VALID,0,VALID,104,VALID,0,VALID,23.2848,VALID,38,VALID,0,
2012-02-09, 01:00:04,VALID,1009.67,VALID,0,VALID,104,VALID,0,VALID,23.2654,VALID,38,VALID,0,
2012-02-09, 01:01:04,VALID,1009.66,VALID,0,VALID,104,VALID,0,VALID,23.2264,VALID,38,VALID,0,
2012-02-09, 01:02:04,VALID,1009.68,VALID,0,VALID,104,VALID,0,VALID,23.2264,VALID,38,VALID,0,
2012-02-09, 01:03:04,VALID,1009.66,VALID,0,VALID,104,VALID,0,VALID,23.2069,VALID,38,VALID,0,
2012-02-09, 01:04:04,VALID,1009.65,VALID,0,VALID,104,VALID,0,VALID,23.2069,VALID,38,VALID,0,
2012-02-09, 01:05:04,VALID,1009.65,VALID,0,VALID,104,VALID,0,VALID,23.1874,VALID,38,VALID,0.315625,
2012-02-09, 01:06:04,VALID,1009.64,VALID,0,VALID,104,VALID,0,VALID,23.1679,VALID,38,VALID,0.384375,
2012-02-09, 01:07:04,VALID,1009.57,VALID,0,VALID,104,VALID,0,VALID,23.1679,VALID,38,VALID,0.275,
2012-02-09, 01:08:04,VALID,1009.58,VALID,0,VALID,104,VALID,0,VALID,23.1679,VALID,38,VALID,0.295703,
2012-02-09, 01:09:04,VALID,1009.57,VALID,0,VALID,104,VALID,0,VALID,23.1874,VALID,38,VALID,0.351563,
2012-02-09, 01:10:04,VALID,1009.56,VALID,0,VALID,104,VALID,0,VALID,23.2264,VALID,38,VALID,0.333203,
2012-02-09, 01:11:04,VALID,1009.58,VALID,0,VALID,104,VALID,0,VALID,23.2264,VALID,38,VALID,0.175391,
2012-02-09, 01:12:04,VALID,1009.55,VALID,0,VALID,104,VALID,0,VALID,23.1874,VALID,38,VALID,0.126563,
2012-02-09, 01:13:04,VALID,1009.57,VALID,0,VALID,104,VALID,0,VALID,23.1485,VALID,38,VALID,0.142188,
2012-02-09, 01:14:04,VALID,1009.55,VALID,0,VALID,104,VALID,0,VALID,23.1485,VALID,38,VALID,0.0140625,
2012-02-09, 01:15:04,VALID,1009.56,VALID,0,VALID,104,VALID,0,VALID,23.129,VALID,38,VALID,0,
2012-02-09, 01:16:04,VALID,1009.56,VALID,0,VALID,104,VALID,0,VALID,23.1485,VALID,38,VALID,0,
2012-02-09, 01:17:04,VALID,1009.58,VALID,0,VALID,104,VALID,0,VALID,23.1892,VALID,38,VALID,0.015625,
2012-02-09, 01:18:04,VALID,1009.57,VALID,0,VALID,104,VALID,0,VALID,23.1679,VALID,38,VALID,0.246094,
2012-02-09, 01:19:04,VALID,1009.54,VALID,0,VALID,104,VALID,0,VALID,23.1874,VALID,38,VALID,0.308203,
2012-02-09, 01:20:04,VALID,1009.55,VALID,0,VALID,104,VALID,0,VALID,23.1679,VALID,38,VALID,0.239844,
2012-02-09, 01:21:04,VALID,1009.56,VALID,0,VALID,104,VALID,0,VALID,23.1679,VALID,38,VALID,0.295703,
2012-02-09, 01:22:04,VALID,1009.55,VALID,0,VALID,104,VALID,0,VALID,23.1485,VALID,38,VALID,0.302734,
2012-02-09, 01:23:04,VALID,1009.55,VALID,0,VALID,104,VALID,0,VALID,23.1679,VALID,38,VALID,0.250391,
2012-02-09, 01:24:04,VALID,1009.58,VALID,0,VALID,104,VALID,0,VALID,23.129,VALID,38,VALID,0.0863281,
2012-02-09, 01:25:04,VALID,1009.55,VALID,0,VALID,104,VALID,0,VALID,23.1095,VALID,38,VALID,0.0378906,
2012-02-09, 01:26:04,VALID,1009.55,VALID,0,VALID,104,VALID,0,VALID,23.1307,VALID,38,VALID,0.328906,
2012-02-09, 01:27:04,VALID,1009.51,VALID,0,VALID,104,VALID,0,VALID,23.1112,VALID,38,VALID,0.432422,
2012-02-09, 01:28:04,VALID,1009.51,VALID,0,VALID,104,VALID,0,VALID,23.129,VALID,38,VALID,0.480078,
2012-02-09, 01:29:04,VALID,1009.46,VALID,0,VALID,104,VALID,0,VALID,23.1077,VALID,38,VALID,0.323828,
2012-02-09, 01:30:04,VALID,1009.48,VALID,0,VALID,104,VALID,0,VALID,23.0705,VALID,38,VALID,0.24375,
2012-02-09, 01:31:04,VALID,1009.46,VALID,0,VALID,104,VALID,0,VALID,23.0511,VALID,38,VALID,0.009375,
2012-02-09, 01:32:04,VALID,1009.49,VALID,0,VALID,104,VALID,0,VALID,22.9926,VALID,38,VALID,0,
2012-02-09, 01:33:04,VALID,1009.47,VALID,0,VALID,104,VALID,0,VALID,22.9536,VALID,38,VALID,0.453125,
2012-02-09, 01:34:04,VALID,1009.45,VALID,0,VALID,104,VALID,0,VALID,22.9342,VALID,38,VALID,0.301172,
2012-02-09, 01:35:04,VALID,1009.47,VALID,0,VALID,104,VALID,0,VALID,22.9147,VALID,38,VALID,0.253516,
2012-02-09, 01:36:04,VALID,1009.45,VALID,0,VALID,104,VALID,0,VALID,22.9164,VALID,38,VALID,0.190625,
2012-02-09, 01:37:04,VALID,1009.48,VALID,0,VALID,104,VALID,0,VALID,22.8952,VALID,38,VALID,0.205859,
2012-02-09, 01:38:04,VALID,1009.48,VALID,0,VALID,104,VALID,0,VALID,22.8952,VALID,38,VALID,0,
2012-02-09, 01:39:04,VALID,1009.46,VALID,0,VALID,104,VALID,0,VALID,22.8757,VALID,38,VALID,0,
2012-02-09, 01:40:04,VALID,1009.46,VALID,0,VALID,104,VALID,0,VALID,22.8757,VALID,38,VALID,0.0726563,
2012-02-09, 01:41:04,VALID,1009.45,VALID,0,VALID,104,VALID,0,VALID,22.8757,VALID,38,VALID,0.126563,
2012-02-09, 01:42:04,VALID,1009.43,VALID,0,VALID,104,VALID,0,VALID,22.8562,VALID,38,VALID,0.433594,
2012-02-09, 01:43:04,VALID,1009.45,VALID,0,VALID,104,VALID,0,VALID,22.8562,VALID,38,VALID,0.417969,
2012-02-09, 01:44:04,VALID,1009.44,VALID,0,VALID,104,VALID,0,VALID,22.8368,VALID,38,VALID,0.267188,
2012-02-09, 01:45:04,VALID,1009.45,VALID,0,VALID,104,VALID,0,VALID,22.8173,VALID,38,VALID,0.295703,
2012-02-09, 01:46:04,VALID,1009.44,VALID,0,VALID,104,VALID,0,VALID,22.858,VALID,38,VALID,0.466016,
2012-02-09, 01:47:04,VALID,1009.42,VALID,0,VALID,104,VALID,0,VALID,22.8562,VALID,38,VALID,0.516797,
2012-02-09, 01:48:04,VALID,1009.43,VALID,0,VALID,104,VALID,0,VALID,22.8757,VALID,38,VALID,0.400391,
2012-02-09, 01:49:04,VALID,1009.43,VALID,0,VALID,104,VALID,0,VALID,22.8757,VALID,38,VALID,0.381641,
2012-02-09, 01:50:04,VALID,1009.4,VALID,0,VALID,104,VALID,0,VALID,22.8562,VALID,38,VALID,0.283203,
2012-02-09, 01:51:04,VALID,1009.38,VALID,0,VALID,104,VALID,0,VALID,22.835,VALID,38,VALID,0.273438,
2012-02-09, 01:52:04,VALID,1009.34,VALID,0,VALID,104,VALID,0,VALID,22.8562,VALID,38,VALID,0,
2012-02-09, 01:53:04,VALID,1009.32,VALID,0,VALID,104,VALID,0.112112,VALID,22.8562,VALID,38,VALID,0,
2012-02-09, 01:54:04,VALID,1009.3,VALID,0,VALID,104,VALID,0.112112,VALID,22.8368,VALID,38,VALID,0.172656,
2012-02-09, 01:55:04,VALID,1009.3,VALID,0,VALID,104,VALID,0,VALID,22.8562,VALID,38,VALID,0.078125,
2012-02-09, 01:56:04,VALID,1009.28,VALID,0,VALID,104,VALID,0,VALID,22.8775,VALID,38,VALID,0.201562,
2012-02-09, 01:57:04,VALID,1009.27,VALID,0,VALID,104,VALID,0,VALID,22.8562,VALID,38,VALID,0.133984,
2012-02-09, 01:58:04,VALID,1009.27,VALID,0,VALID,104,VALID,0,VALID,22.8368,VALID,38,VALID,0.140234,
2012-02-09, 01:59:04,VALID,1009.28,VALID,0,VALID,104,VALID,0,VALID,22.8562,VALID,38,VALID,0.208984,
2012-02-09, 02:00:04,VALID,1009.27,VALID,0,VALID,104,VALID,0,VALID,22.8368,VALID,38,VALID,0.304688,
2012-02-09, 02:01:04,VALID,1009.25,VALID,0,VALID,104,VALID,0,VALID,22.8757,VALID,38,VALID,0.494141,
2012-02-09, 02:02:04,VALID,1009.22,VALID,0,VALID,104,VALID,0,VALID,22.8562,VALID,38,VALID,0.571875,
2012-02-09, 02:03:04,VALID,1009.22,VALID,0,VALID,104,VALID,0,VALID,22.8562,VALID,75,VALID,0.552344,
2012-02-09, 02:04:04,VALID,1009.2,VALID,0,VALID,104,VALID,0,VALID,22.8952,VALID,75,VALID,0.653516,
2012-02-09, 02:05:04,VALID,1009.18,VALID,0,VALID,104,VALID,0,VALID,22.9147,VALID,75,VALID,0.4125,
2012-02-09, 02:06:04,VALID,1009.17,VALID,0,VALID,104,VALID,0,VALID,22.9342,VALID,75,VALID,0.302734,
2012-02-09, 02:07:04,VALID,1009.15,VALID,0,VALID,104,VALID,0,VALID,22.9731,VALID,69,VALID,0.544922,
2012-02-09, 02:08:04,VALID,1009.08,VALID,0,VALID,104,VALID,0,VALID,22.9731,VALID,69,VALID,0.296094,
2012-02-09, 02:09:04,VALID,1009.07,VALID,0,VALID,104,VALID,0,VALID,22.9943,VALID,67,VALID,0.335547,
2012-02-09, 02:10:04,VALID,1009.06,VALID,0,VALID,104,VALID,0,VALID,22.9926,VALID,67,VALID,0.332422,
2012-02-09, 02:11:04,VALID,1009.02,VALID,0,VALID,104,VALID,0,VALID,22.9926,VALID,71,VALID,0.269141,
2012-02-09, 02:12:04,VALID,1008.98,VALID,0,VALID,104,VALID,0,VALID,23.0121,VALID,50,VALID,0.657422,
2012-02-09, 02:13:04,VALID,1008.98,VALID,0,VALID,104,VALID,0,VALID,23.0121,VALID,50,VALID,0.589844,
2012-02-09, 02:14:04,VALID,1008.95,VALID,0,VALID,104,VALID,0,VALID,23.0316,VALID,50,VALID,0.251172,
2012-02-09, 02:15:04,VALID,1008.93,VALID,0,VALID,104,VALID,0,VALID,23.0138,VALID,50,VALID,0.0449219,
2012-02-09, 02:16:04,VALID,1008.95,VALID,0,VALID,104,VALID,0,VALID,22.9943,VALID,50,VALID,0.0359375,
2012-02-09, 02:17:04,VALID,1008.92,VALID,0,VALID,104,VALID,0,VALID,22.9731,VALID,50,VALID,0,
2012-02-09, 02:18:04,VALID,1008.89,VALID,0,VALID,104,VALID,0,VALID,22.9536,VALID,50,VALID,0,
2012-02-09, 02:19:04,VALID,1008.9,VALID,0,VALID,104,VALID,0,VALID,22.9342,VALID,50,VALID,0,
2012-02-09, 02:20:04,VALID,1008.88,VALID,0,VALID,104,VALID,0,VALID,22.9147,VALID,50,VALID,0,
2012-02-09, 02:21:04,VALID,1008.86,VALID,0,VALID,104,VALID,0,VALID,22.9164,VALID,50,VALID,0,
2012-02-09, 02:22:04,VALID,1008.85,VALID,0,VALID,104,VALID,0,VALID,22.8757,VALID,50,VALID,0,
2012-02-09, 02:23:04,VALID,1008.87,VALID,0,VALID,104,VALID,0,VALID,22.8368,VALID,50,VALID,0,
2012-02-09, 02:24:04,VALID,1008.86,VALID,0,VALID,104,VALID,0,VALID,22.7978,VALID,50,VALID,0,
2012-02-09, 02:25:04,VALID,1008.89,VALID,0,VALID,104,VALID,0,VALID,22.7588,VALID,50,VALID,0,
2012-02-09, 02:26:04,VALID,1008.86,VALID,0,VALID,104,VALID,0,VALID,22.7394,VALID,50,VALID,0,
2012-02-09, 02:27:04,VALID,1008.9,VALID,0,VALID,104,VALID,0,VALID,22.7394,VALID,50,VALID,0,
2012-02-09, 02:28:04,VALID,1008.91,VALID,0,VALID,104,VALID,0,VALID,22.7995,VALID,50,VALID,0,
2012-02-09, 02:29:04,VALID,1008.94,VALID,0,VALID,104,VALID,0,VALID,22.8385,VALID,50,VALID,0,
2012-02-09, 02:30:04,VALID,1008.96,VALID,0,VALID,104,VALID,0,VALID,22.8368,VALID,50,VALID,0,
2012-02-09, 02:31:04,VALID,1008.9,VALID,0,VALID,104,VALID,0,VALID,22.8368,VALID,50,VALID,0,
2012-02-09, 02:32:04,VALID,1008.91,VALID,0,VALID,104,VALID,0,VALID,22.8368,VALID,50,VALID,0,
2012-02-09, 02:33:04,VALID,1008.91,VALID,0,VALID,104,VALID,0,VALID,22.8173,VALID,50,VALID,0,
2012-02-09, 02:34:04,VALID,1008.9,VALID,0,VALID,104,VALID,0,VALID,22.8562,VALID,50,VALID,0.110156,
2012-02-09, 02:35:04,VALID,1008.9,VALID,0,VALID,104,VALID,0,VALID,22.858,VALID,50,VALID,0,
2012-02-09, 02:36:04,VALID,1008.88,VALID,0,VALID,104,VALID,0,VALID,22.8368,VALID,50,VALID,0.189844,
2012-02-09, 02:37:04,VALID,1008.88,VALID,0,VALID,104,VALID,0,VALID,22.8173,VALID,50,VALID,0.228516,
2012-02-09, 02:38:04,VALID,1008.9,VALID,0,VALID,104,VALID,0,VALID,22.8173,VALID,50,VALID,0.137891,
2012-02-09, 02:39:04,VALID,1008.88,VALID,0,VALID,104,VALID,0,VALID,22.8173,VALID,50,VALID,0.0777344,
2012-02-09, 02:40:04,VALID,1008.88,VALID,0,VALID,104,VALID,0,VALID,22.7783,VALID,50,VALID,0.0746094,
2012-02-09, 02:41:04,VALID,1008.88,VALID,0,VALID,104,VALID,0,VALID,22.7588,VALID,50,VALID,0.075,
2012-02-09, 02:42:04,VALID,1008.89,VALID,0,VALID,104,VALID,0,VALID,22.7394,VALID,50,VALID,0,
2012-02-09, 02:43:04,VALID,1008.86,VALID,0,VALID,104,VALID,0,VALID,22.7199,VALID,50,VALID,0,
2012-02-09, 02:44:04,VALID,1008.89,VALID,0,VALID,104,VALID,0,VALID,22.7004,VALID,50,VALID,0,
2012-02-09, 02:45:04,VALID,1008.84,VALID,0,VALID,104,VALID,0,VALID,22.6225,VALID,50,VALID,0,
2012-02-09, 02:46:04,VALID,1008.84,VALID,0,VALID,104,VALID,0,VALID,22.603,VALID,50,VALID,0,
2012-02-09, 02:47:04,VALID,1008.87,VALID,0,VALID,104,VALID,0,VALID,22.564,VALID,50,VALID,0,
2012-02-09, 02:48:04,VALID,1008.89,VALID,0,VALID,104,VALID,0,VALID,22.5446,VALID,50,VALID,0,
2012-02-09, 02:49:04,VALID,1008.87,VALID,0,VALID,104,VALID,0,VALID,22.5463,VALID,50,VALID,0,
2012-02-09, 02:50:04,VALID,1008.87,VALID,0,VALID,104,VALID,0,VALID,22.5056,VALID,50,VALID,0,
2012-02-09, 02:51:04,VALID,1008.89,VALID,0,VALID,104,VALID,0,VALID,22.5251,VALID,50,VALID,0,
2012-02-09, 02:52:04,VALID,1008.87,VALID,0,VALID,104,VALID,0,VALID,22.5251,VALID,50,VALID,0,
2012-02-09, 02:53:04,VALID,1008.88,VALID,0,VALID,104,VALID,0,VALID,22.5446,VALID,50,VALID,0,
2012-02-09, 02:54:04,VALID,1008.87,VALID,0,VALID,104,VALID,0,VALID,22.5446,VALID,50,VALID,0,
2012-02-09, 02:55:04,VALID,1008.85,VALID,0,VALID,104,VALID,0,VALID,22.5056,VALID,50,VALID,0.0761719,
2012-02-09, 02:56:04,VALID,1008.85,VALID,0,VALID,104,VALID,0,VALID,22.4861,VALID,50,VALID,0.377734,
2012-02-09, 02:57:04,VALID,1008.83,VALID,0,VALID,104,VALID,0,VALID,22.4861,VALID,50,VALID,0.524219,
2012-02-09, 02:58:04,VALID,1008.82,VALID,0,VALID,104,VALID,0,VALID,22.5056,VALID,50,VALID,0.510547,
2012-02-09, 02:59:04,VALID,1008.84,VALID,0,VALID,104,VALID,0,VALID,22.5251,VALID,50,VALID,0.561719,
2012-02-09, 03:00:04,VALID,1008.81,VALID,0,VALID,104,VALID,0,VALID,22.5251,VALID,50,VALID,0.384375,
2012-02-09, 03:01:04,VALID,1008.8,VALID,0,VALID,104,VALID,0,VALID,22.5251,VALID,50,VALID,0.558203,
2012-02-09, 03:02:04,VALID,1008.79,VALID,0,VALID,104,VALID,0,VALID,22.5056,VALID,50,VALID,0.312891,
2012-02-09, 03:03:04,VALID,1008.77,VALID,0,VALID,104,VALID,0,VALID,22.4667,VALID,50,VALID,0.309375,
2012-02-09, 03:04:04,VALID,1008.81,VALID,0,VALID,104,VALID,0,VALID,22.4667,VALID,50,VALID,0.558203,
2012-02-09, 03:05:04,VALID,1008.77,VALID,0,VALID,104,VALID,0,VALID,22.4861,VALID,50,VALID,0.337109,
2012-02-09, 03:06:04,VALID,1008.81,VALID,0,VALID,104,VALID,0,VALID,22.4861,VALID,50,VALID,0.412891,
2012-02-09, 03:07:04,VALID,1008.83,VALID,0,VALID,104,VALID,0,VALID,22.4861,VALID,50,VALID,0.241406,
2012-02-09, 03:08:04,VALID,1008.8,VALID,0,VALID,104,VALID,0,VALID,22.5056,VALID,50,VALID,0.558203,
2012-02-09, 03:09:04,VALID,1008.81,VALID,0,VALID,104,VALID,0,VALID,22.5056,VALID,50,VALID,0.429297,
2012-02-09, 03:10:04,VALID,1008.8,VALID,0,VALID,104,VALID,0,VALID,22.4861,VALID,50,VALID,0.465625,
2012-02-09, 03:11:04,VALID,1008.8,VALID,0,VALID,104,VALID,0,VALID,22.5251,VALID,51,VALID,0.625,
2012-02-09, 03:12:04,VALID,1008.81,VALID,0,VALID,104,VALID,0,VALID,22.5251,VALID,51,VALID,0.603516,
2012-02-09, 03:13:04,VALID,1008.81,VALID,0,VALID,104,VALID,0,VALID,22.5251,VALID,51,VALID,0.573438,
2012-02-09, 03:14:04,VALID,1008.82,VALID,0,VALID,104,VALID,0,VALID,22.5463,VALID,51,VALID,0.530469,
2012-02-09, 03:15:04,VALID,1008.79,VALID,0,VALID,104,VALID,0,VALID,22.5446,VALID,51,VALID,0.600391,
2012-02-09, 03:16:04,VALID,1008.79,VALID,0,VALID,104,VALID,0,VALID,22.564,VALID,51,VALID,0.573047,
2012-02-09, 03:17:04,VALID,1008.78,VALID,0,VALID,104,VALID,0,VALID,22.564,VALID,51,VALID,0.339063,
2012-02-09, 03:18:04,VALID,1008.78,VALID,0,VALID,104,VALID,0,VALID,22.5658,VALID,51,VALID,0.413672,
2012-02-09, 03:19:04,VALID,1008.79,VALID,0,VALID,104,VALID,0,VALID,22.5446,VALID,51,VALID,0.394922,
2012-02-09, 03:20:04,VALID,1008.81,VALID,0,VALID,104,VALID,0,VALID,22.5446,VALID,51,VALID,0.374219,
2012-02-09, 03:21:04,VALID,1008.82,VALID,0,VALID,104,VALID,0,VALID,22.5446,VALID,51,VALID,0.405469,
2012-02-09, 03:22:04,VALID,1008.86,VALID,0,VALID,104,VALID,0,VALID,22.5446,VALID,51,VALID,0.0339844,
2012-02-09, 03:23:04,VALID,1008.89,VALID,0,VALID,104,VALID,0,VALID,22.5463,VALID,51,VALID,0,
2012-02-09, 03:24:04,VALID,1008.92,VALID,0,VALID,104,VALID,0,VALID,22.5251,VALID,51,VALID,0,
2012-02-09, 03:25:04,VALID,1008.9,VALID,0,VALID,104,VALID,0,VALID,22.5056,VALID,51,VALID,0,
2012-02-09, 03:26:04,VALID,1008.95,VALID,0,VALID,104,VALID,0,VALID,22.4861,VALID,51,VALID,0,
2012-02-09, 03:27:04,VALID,1008.94,VALID,0,VALID,104,VALID,0,VALID,22.4861,VALID,51,VALID,0,
2012-02-09, 03:28:04,VALID,1008.93,VALID,0,VALID,104,VALID,0,VALID,22.5073,VALID,51,VALID,0,
2012-02-09, 03:29:04,VALID,1008.92,VALID,0,VALID,104,VALID,0,VALID,22.5056,VALID,51,VALID,0.0160156,
2012-02-09, 03:30:04,VALID,1008.94,VALID,0,VALID,104,VALID,0,VALID,22.5056,VALID,51,VALID,0.364844,
2012-02-09, 03:31:04,VALID,1008.94,VALID,0,VALID,104,VALID,0,VALID,22.5056,VALID,51,VALID,0.466406,
2012-02-09, 03:32:04,VALID,1008.95,VALID,0,VALID,104,VALID,0,VALID,22.5056,VALID,50,VALID,0.419531,
2012-02-09, 03:33:04,VALID,1008.94,VALID,0,VALID,104,VALID,0,VALID,22.5251,VALID,50,VALID,0.403906,
2012-02-09, 03:34:04,VALID,1008.94,VALID,0,VALID,104,VALID,0,VALID,22.5268,VALID,50,VALID,0.289844,
2012-02-09, 03:35:04,VALID,1008.93,VALID,0,VALID,104,VALID,0,VALID,22.5056,VALID,50,VALID,0.0492188,
2012-02-09, 03:36:05,VALID,1008.92,VALID,0,VALID,104,VALID,0,VALID,22.5268,VALID,50,VALID,0.235156,
2012-02-09, 03:37:04,VALID,1008.94,VALID,0,VALID,104,VALID,0,VALID,22.5056,VALID,50,VALID,0,
2012-02-09, 03:38:05,VALID,1008.94,VALID,0,VALID,104,VALID,0.112112,VALID,22.4861,VALID,50,VALID,0,
2012-02-09, 03:39:05,VALID,1008.95,VALID,0,VALID,104,VALID,0,VALID,22.4667,VALID,50,VALID,0.0167969,
2012-02-09, 03:40:05,VALID,1008.97,VALID,0,VALID,104,VALID,0,VALID,22.4667,VALID,50,VALID,0.250781,
2012-02-09, 03:41:05,VALID,1009,VALID,0,VALID,104,VALID,0.112112,VALID,22.4844,VALID,50,VALID,0.0714844,
2012-02-09, 03:42:05,VALID,1009.04,VALID,0,VALID,104,VALID,0,VALID,22.4861,VALID,50,VALID,0,
2012-02-09, 03:43:05,VALID,1009.06,VALID,0,VALID,104,VALID,0.112112,VALID,22.4667,VALID,50,VALID,0,
2012-02-09, 03:44:05,VALID,1009.05,VALID,0,VALID,104,VALID,0,VALID,22.4667,VALID,50,VALID,0.3375,
2012-02-09, 03:45:05,VALID,1009.06,VALID,0,VALID,104,VALID,0,VALID,22.4277,VALID,50,VALID,0.162109,
2012-02-09, 03:46:05,VALID,1009.04,VALID,0,VALID,104,VALID,0,VALID,22.4472,VALID,50,VALID,0.117188,
2012-02-09, 03:47:05,VALID,1009.06,VALID,0,VALID,104,VALID,0.112112,VALID,22.4082,VALID,50,VALID,0.034375,
2012-02-09, 03:48:05,VALID,1009.02,VALID,0,VALID,104,VALID,0.112112,VALID,22.4082,VALID,50,VALID,0.000390625,
2012-02-09, 03:49:05,VALID,1009.06,VALID,0,VALID,104,VALID,0,VALID,22.3887,VALID,50,VALID,0.165625,
2012-02-09, 03:50:05,VALID,1009.06,VALID,0,VALID,104,VALID,0,VALID,22.3887,VALID,50,VALID,0.189453,
2012-02-09, 03:51:05,VALID,1009.04,VALID,0,VALID,104,VALID,0,VALID,22.3887,VALID,50,VALID,0.375781,
2012-02-09, 03:52:05,VALID,1009.03,VALID,0,VALID,104,VALID,0,VALID,22.3693,VALID,50,VALID,0.247266,
2012-02-09, 03:53:05,VALID,1009.04,VALID,0,VALID,104,VALID,0,VALID,22.3887,VALID,50,VALID,0.296875,
2012-02-09, 03:54:05,VALID,1009.03,VALID,0,VALID,104,VALID,0.112112,VALID,22.3693,VALID,50,VALID,0.417578,
2012-02-09, 03:55:05,VALID,1009.01,VALID,0,VALID,104,VALID,0.112112,VALID,22.3887,VALID,50,VALID,0.48125,
2012-02-09, 03:56:05,VALID,1009.03,VALID,0,VALID,104,VALID,0,VALID,22.4099,VALID,50,VALID,0.409375,
2012-02-09, 03:57:05,VALID,1008.96,VALID,0,VALID,104,VALID,0.112112,VALID,22.3693,VALID,50,VALID,0.499609,
2012-02-09, 03:58:05,VALID,1008.95,VALID,0,VALID,104,VALID,0,VALID,22.3887,VALID,50,VALID,0.562109,
2012-02-09, 03:59:05,VALID,1008.92,VALID,0,VALID,104,VALID,0,VALID,22.3693,VALID,50,VALID,0.505859,
2012-02-09, 04:00:05,VALID,1008.88,VALID,0,VALID,104,VALID,0.112112,VALID,22.3904,VALID,50,VALID,0.573828,
2012-02-09, 04:01:05,VALID,1008.91,VALID,0,VALID,104,VALID,0,VALID,22.3498,VALID,54,VALID,0.634766,